{"data":{"norad_id":53690,"epoch":"2026-05-25T02:48:59.338080Z","epoch_age_seconds":64809,"freshness":"FRESH","line1":"1 53690U 22105AU  26145.11735345 -.00001742  00000+0 -11665-3 0  9997","line2":"2 53690  97.4524  25.0706 0001710  92.2877 267.8546 15.05658103204738","mean_motion":15.05658103,"eccentricity":0.000171,"inclination_deg":97.4524,"raan_deg":25.0706,"arg_perigee_deg":92.2877,"mean_anomaly_deg":267.8546,"bstar":-0.00011665,"rev_number":20473,"period_min":95.639242211152,"perigee_km":548.30167541729,"apogee_km":550.67092258555,"semimajor_km":6927.6232990014,"source":"CELESTRAK","updated_at":"2026-05-25T13:38:17.530565Z"}}